Location: *
(37.5724°S, 58.0067°E)
Time: 08:13:22
(UTC+00:00)

Cosmos 1933 Rocket - Pass Details

Date: 28 January 2021
Orbit: 607 x 630 km, 82.5° (Epoch: 04 March)

Event Time Altitude Azimuth Distance (km) Brightness Sun altitude
Rises 18:39:23 0° 185° (S) 2,958 8.0 -29.5°
Reaches altitude 10° 18:41:40 10° 183° (S) 2,041 7.0 -29.7°
Enters shadow 18:44:26 36° 173° (S) 1,007 4.9 -30.0°
